Location: Avully
(45.9633°N, 6.0228°E)
Time: 03:15:49
(UTC+00:00)

H-2A R/B - Pass Details

Date: 23 May 2024
Orbit: 567 x 637 km, 98.4° (Epoch: 17 June)

Event Time Altitude Azimuth Distance (km) Brightness Sun altitude
Rises 00:32:06 0° 3° (N) 2,952 6.9 -22.0°
Reaches altitude 10° 00:34:35 10° 351° (N) 2,037 5.6 -21.9°
Maximum altitude 00:38:15 26° 295° (WNW) 1,260 3.7 -21.8°
Enters shadow 00:39:25 23° 270° (W) 1,355 3.6 -21.7°
